Notices

What's New in latest Release from April 7th, 2021:

- Updated Glossary, including Speed of Maximum Gust, and Total Hourly Precipitation

- Updated national and regional climate services offices contacts and prices information

- Addition of station inventory lists for 1981-2010, 1971-2000, and 1961-1990 Normals.

If you haven't already, please take our survey and provide feedback about our website: https://eccc.sondage-survey.ca/f/LanguageSelection.aspx?s=442ca660-fcf1-47c0-95a9-59707d6fd709

Hourly Data Report for January 08, 2021

EDMUNDSTON
NEW BRUNSWICK
Current Station Operator: ECCC - MSC

47°25'00.000" N
68°19'28.040" W
154.20 m
8101303
71590
ERM

Download Data

Hourly Data (January 2021)
Hourly Data Report for January 8, 2021
TIME
LST
Temp Definition
°C
Dew Point Definition
°C
Rel Hum Definition
%
Precip. Amount Definition
mm

Wind Dir Definition
10's deg

Wind Spd Definition
km/h
Visibility Definition
km
Stn Press Definition
kPa
Hmdx Definition


Wind Chill Definition


Weather Definition


00:00 -4.5 LegendMM LegendMM 0.0 31 16   99.40   -10 LegendNANA
01:00 -4.8 LegendMM LegendMM 0.0 31 19   99.35   -11 LegendNANA
02:00 -5.3 LegendMM LegendMM 0.0 31 22   99.33   -12 LegendNANA
03:00 -5.3 LegendMM LegendMM 0.0 33 15   99.33   -11 LegendNANA
04:00 -5.3 LegendMM LegendMM 0.0 32 14   99.30   -11 LegendNANA
05:00 -5.3 LegendMM LegendMM 0.0 32 15   99.24   -11 LegendNANA
06:00 -5.6 LegendMM LegendMM 0.0 31 14   99.23   -11 LegendNANA
07:00 -6.1 LegendMM LegendMM 0.0 31 16   99.14   -12 LegendNANA
08:00 -6.4 LegendMM LegendMM 0.0 31 18   99.14   -13 LegendNANA
09:00 -6.5 LegendMM LegendMM 0.0 31 13   99.12   -12 LegendNANA
10:00 -6.8 LegendMM LegendMM 0.3 30 8   99.11   -11 LegendNANA
11:00 -6.3 LegendMM LegendMM 0.2 29 10   99.06   -11 LegendNANA
12:00 -6.1 LegendMM LegendMM 0.7 31 9   98.99   -10 LegendNANA
13:00 -6.0 LegendMM LegendMM 0.2 32 11   98.91   -11 LegendNANA
14:00 -6.0 LegendMM LegendMM 0.0 32 12   98.89   -11 LegendNANA
15:00 -5.8 LegendMM LegendMM 0.2 31 9   98.88   -10 LegendNANA
16:00 -5.4 LegendMM LegendMM 0.0 31 10   98.89   -10 LegendNANA
17:00 -5.3 LegendMM LegendMM 0.0 31 12   98.89   -10 LegendNANA
18:00 -5.5 LegendMM LegendMM 0.2 31 12   98.88   -10 LegendNANA
19:00 -5.5 LegendMM LegendMM 0.0 32 15   98.92   -11 LegendNANA
20:00 -5.6 LegendMM LegendMM 0.0 31 13   98.96   -11 LegendNANA
21:00 -5.7 LegendMM LegendMM 0.0 31 12   98.98   -11 LegendNANA
22:00 -5.8 LegendMM LegendMM 0.3 31 10   98.98   -10 LegendNANA
23:00 -5.5 LegendMM LegendMM 0.2 32 9   98.98   -10 LegendNANA

Notes on Data Quality.

Legend

  • E = Estimated
  • M = Missing
  • NA = Not Available*
  • [empty] = Indicates an unobserved value
Date modified: